Regional Weather Roundup
Issued by NWS

Home | Current Version | Previous Version | Text Only | Print | Product List | Glossary On
Versions: 1 2 3 4 5 6 7 8 9 10 11 12 13 14 15 16 17 18 19 20 21 22 23 24 25 26 27 28 29 30 31 32 33 34 35 36 37 38 39 40 41 42 43 44 45 46 47 48 49 50
000
ASUS42 KFFC 271503
RWRGA
WEATHER ROUNDUP FOR GEORGIA
NATIONAL WEATHER SERVICE PEACHTREE CITY GA
1100 AM EDT WED JUL 27 2016

NOTE: "FAIR" INDICATES FEW OR NO CLOUDS BELOW 12,000 FEET WITH NO
SIGNIFICANT WEATHER AND/OR OBSTRUCTIONS TO VISIBILITY.

* = USE WITH CAUTION. THE STATIONS MARKED WITH AN ASTERISK MAY NOT
REPORT WEATHER SUCH AS PRECIPITATION, FOG, OR THUNDER AND ARE NOT
QUALITY CONTROLLED BY NWS.

THE REMARK "TC" DENOTES TEMPERATURE READING IN DEGREES CELSIUS.

GAZ001>058-271600-
NORTH GEORGIA

CITY           SKY/WX    TMP DP  RH WIND       PRES   REMARKS
ATLANTA        PTSUNNY   81  71  71 NW9       30.10S
ATHENS         MOSUNNY   87  73  62 VRB7      30.07F HX  94
CHAMBLEE       CLOUDY    81  70  69 S9        30.09F
PEACHTREE CITY   N/A     81  72  74 VRB6      30.10S
ROME           CLOUDY    82  71  69 S9        30.06F
WEST ATLANTA     N/A     79  70  74 MISG      30.09S
GAINESVILLE    SUNNY     84  72  67 SW8       30.10F
CARTERSVILLE   PTSUNNY   81  71  71 VRB3      30.08F


CITY           SKY/WX    TMP DP  RH WIND       PRES   REMARKS
DALTON*        MOSUNNY   86  72  62 S3        30.05F HX  92
LAWRENCEVILLE* PTSUNNY   82  73  74 SW7       30.09S
MARIETTA       CLOUDY    79  71  77 SW6       30.10S
KENNESAW*      CLOUDY    79  70  73 SW6       30.06S
CANTON*        PTSUNNY   81  66  61 W6        30.11S
BLAIRSVILLE*     N/A    N/A N/A N/A MISG      30.12F
$$

GAZ059>098-102>109-271600-
CENTRAL GEORGIA

CITY           SKY/WX    TMP DP  RH WIND       PRES   REMARKS
AUGUSTA-BUSH   SUNNY     89  72  56 SW10      30.05S HX  96
AUGUSTA-DANIEL MOSUNNY   89  73  59 VRB5      30.07F HX  97
COLUMBUS       PTSUNNY   82  71  69 W8        30.09S
MACON          PTSUNNY   86  71  60 W12       30.09S HX  91
ROBINS AFB     PTSUNNY   87  72  62 NW12      30.08S HX  93


CITY           SKY/WX    TMP DP  RH WIND       PRES   REMARKS
LAGRANGE*      PTSUNNY   83  76  78 W6        30.09S HX  91
MILLEDGEVILLE* MOSUNNY   88  75  66 W5        30.08R HX  97
$$

GAZ099>101-110>166-271600-
SOUTH GEORGIA

CITY           SKY/WX    TMP DP  RH WIND       PRES   REMARKS
SAVANNAH       PTSUNNY   90  72  55 W10       30.07S HX  97
VALDOSTA       SUNNY     87  73  62 VRB6      30.10S HX  94
ALMA           SUNNY     87  72  60 W3        30.09S HX  93
ST SIMONS      SUNNY     88  72  58 W7        30.09R HX  94
FT STEWART     SUNNY     87  72  60 VRB1      30.06S HX  94
ALBANY         PTSUNNY   86  74  67 W10       30.11S HX  94
HUNTER AFB     SUNNY     89  77  68 W8        30.05R HX 101
MOODY AFB      SUNNY     88  72  57 SW9       30.10R HX  95
BRUNSWICK      SUNNY     90  77  66 W5        30.10R HX 102


CITY           SKY/WX    TMP DP  RH WIND       PRES   REMARKS
BAINBRIDGE*    MOSUNNY   88  73  62 W8        30.09S HX  96
MOULTRIE*      SUNNY     86  73  66 SW6       30.11S HX  93
VIDALIA*       MOSUNNY   88  72  58 W6        30.09S HX  94
WAYCROSS*      SUNNY     91  76  60 W6        30.09S HX 103
DOUGLAS*       SUNNY     88  70  55 W7        30.11R HX  92
$$



USA.gov is the U.S. government's official web portal to all federal, state and local government web resources and services.